Time,TemperatureF,DewpointF,PressureIn,WindDirection,WindDirectionDegrees,WindSpeedMPH,WindSpeedGustMPH,Humidity,HourlyPrecipIn,Conditions,Clouds,dailyrainin,SoftwareType,DateUTC
2013-04-08 00:00:00,41.8,37.8,23.91,North,0,0.0,-999.0,86,0.00,,,0.00,,2013-04-08 07:00:00,
2013-04-08 01:00:00,40.0,37.8,23.86,North,0,0.0,-999.0,92,0.00,,,0.00,,2013-04-08 08:00:00,
2013-04-08 02:00:00,36.9,35.0,23.82,North,0,0.0,-999.0,93,0.00,,,0.00,,2013-04-08 09:00:00,
2013-04-08 03:00:00,34.2,32.3,23.77,North,0,0.0,-999.0,93,0.00,,,0.00,,2013-04-08 10:00:00,
2013-04-08 04:00:00,33.5,31.3,23.75,North,0,0.0,-999.0,92,0.00,,,0.00,,2013-04-08 11:00:00,
2013-04-08 05:00:00,32.2,30.4,23.72,North,0,0.0,-999.0,93,0.00,,,0.00,,2013-04-08 12:00:00,
2013-04-08 06:00:00,31.3,29.5,23.71,North,0,0.0,-999.0,93,0.10,,,0.10,,2013-04-08 13:00:00,
2013-04-08 07:07:00,29.0,27.2,23.71,North,0,0.0,-999.0,93,0.15,,,0.25,,2013-04-08 14:07:00,
2013-04-08 08:00:00,27.2,25.4,23.74,North,0,0.0,-999.0,93,0.17,,,0.43,,2013-04-08 15:00:00,
2013-04-08 09:07:00,27.5,25.0,23.74,North,0,0.0,-999.0,90,0.06,,,0.49,,2013-04-08 16:07:00,
2013-04-08 10:00:00,29.5,26.5,23.78,North,0,0.0,-999.0,88,0.06,,,0.56,,2013-04-08 17:00:00,
2013-04-08 11:06:00,29.9,26.8,23.78,North,0,0.0,-999.0,88,0.06,,,0.62,,2013-04-08 18:06:00,
2013-04-08 12:00:00,32.8,27.9,23.79,North,0,0.0,-999.0,82,0.00,,,0.62,,2013-04-08 19:00:00,
2013-04-08 13:06:00,31.7,27.7,23.79,North,0,0.0,-999.0,85,0.00,,,0.62,,2013-04-08 20:06:00,
2013-04-08 14:00:00,30.4,28.2,23.81,North,0,0.0,-999.0,91,0.00,,,0.62,,2013-04-08 21:00:00,
2013-04-08 15:06:00,31.7,28.9,23.81,North,0,0.0,-999.0,89,0.02,,,0.64,,2013-04-08 22:06:00,
2013-04-08 16:00:00,30.6,28.8,23.81,North,0,0.0,-999.0,93,0.00,,,0.64,,2013-04-08 23:00:00,
2013-04-08 18:00:00,31.3,29.8,23.83,North,0,0.0,-999.0,94,0.00,,,0.64,,2013-04-09 01:00:00,
2013-04-08 19:00:00,32.8,28.7,23.84,North,0,0.0,-999.0,85,0.00,,,0.64,,2013-04-09 02:00:00,
2013-04-08 20:00:00,32.6,30.2,23.86,North,0,0.0,-999.0,91,0.02,,,0.67,,2013-04-09 03:00:00,
2013-04-08 21:00:00,33.1,30.5,23.87,North,0,0.0,-999.0,90,0.02,,,0.69,,2013-04-09 04:00:00,
2013-04-08 22:00:00,32.8,30.7,23.88,North,0,0.0,-999.0,92,0.00,,,0.69,,2013-04-09 05:00:00,
2013-04-08 23:00:00,32.9,30.1,23.90,North,0,0.0,-999.0,89,0.00,,,0.69,,2013-04-09 06:00:00,